This is the latest recevied weather packets stored in our database for station/object HB9SZU-7. If no packets are shown the sender has not sent any weather packets the latest 10 day(s).
| Time | Temp. | Humidity | Pressure | Rain* | Wind** | Luminosity | Snow |
|---|---|---|---|---|---|---|---|
| 1777491470 | 13.89° C | 74% | 936.8 hPa | - | - | - | - |
| 1777490509 | 13.89° C | 74% | 936.8 hPa | - | - | - | - |
| 1777486669 | 13.89° C | 74% | 936.5 hPa | - | - | - | - |
| 1777485709 | 13.89° C | 74% | 936.3 hPa | - | - | - | - |
| 1777482829 | 14.44° C | 72% | 936.2 hPa | - | - | - | - |
| 1777481869 | 14.44° C | 72% | 936.2 hPa | - | - | - | - |
| 1777479950 | 14.44° C | 71% | 936.2 hPa | - | - | - | - |
| 1777477069 | 15° C | 74% | 936.6 hPa | - | - | - | - |
| 1777469389 | 15° C | 73% | 937 hPa | - | - | - | - |
| 1777468429 | 15° C | 73% | 937 hPa | - | - | - | - |
| 1777467469 | 15° C | 73% | 937 hPa | - | - | - | - |
| 1777464589 | 14.44° C | 75% | 937.2 hPa | - | - | - | - |
| 1777462669 | 12.78° C | 76% | 937.4 hPa | - | - | - | - |
| 1777461709 | 12.78° C | 76% | 937.4 hPa | - | - | - | - |
| 1777460750 | 12.78° C | 76% | 937.4 hPa | - | - | - | - |
| 1777458829 | 12.22° C | 77% | 937.4 hPa | - | - | - | - |
| 1777457869 | 11.67° C | 79% | 937.5 hPa | - | - | - | - |
| 1777456909 | 11.67° C | 80% | 937.5 hPa | - | - | - | - |
| 1777454989 | 11.11° C | 81% | 937.3 hPa | - | - | - | - |
| 1777454029 | 11.11° C | 81% | 937.3 hPa | - | - | - | - |
| 1777453069 | 11.11° C | 81% | 937.3 hPa | - | - | - | - |
| 1777452110 | 11.11° C | 81% | 937.3 hPa | - | - | - | - |
| 1777451149 | 11.11° C | 81% | 937.4 hPa | - | - | - | - |
| 1777450189 | 11.11° C | 81% | 937.4 hPa | - | - | - | - |
| 1777449229 | 11.11° C | 80% | 937.4 hPa | - | - | - | - |
* Rain since midnight (hover to see other rain measurements)
** Current wind speed in m/s (hover to see current wind gust speed)